TimePDT,TemperatureF,Dew PointF,Humidity,Sea Level PressureIn,VisibilityMPH,Wind Direction,Wind SpeedMPH,Gust SpeedMPH,PrecipitationIn,Events,Conditions,WindDirDegrees,DateUTC
12:15 AM,66.2,53.6,64,29.80,10.0,SE,9.2,-,N/A,,Clear,130,2013-09-16 07:15:00
12:35 AM,64.4,53.6,68,29.81,10.0,SE,8.1,-,N/A,,Clear,140,2013-09-16 07:35:00
12:55 AM,64.4,53.6,68,29.81,10.0,SE,9.2,-,N/A,,Clear,140,2013-09-16 07:55:00
1:15 AM,64.4,53.6,68,29.81,10.0,SE,9.2,-,N/A,,Clear,140,2013-09-16 08:15:00
1:35 AM,62.6,53.6,72,29.82,10.0,SSE,8.1,-,N/A,,Clear,150,2013-09-16 08:35:00
1:55 AM,62.6,55.4,77,29.82,10.0,SSE,8.1,-,N/A,,Clear,150,2013-09-16 08:55:00
2:15 AM,62.6,55.4,77,29.82,10.0,SE,8.1,-,N/A,,Clear,140,2013-09-16 09:15:00
2:35 AM,62.6,55.4,77,29.81,10.0,SE,9.2,-,N/A,,Clear,140,2013-09-16 09:35:00
2:55 AM,62.6,55.4,77,29.81,10.0,SE,6.9,-,N/A,,Clear,130,2013-09-16 09:55:00
3:15 AM,62.6,55.4,77,29.81,10.0,SE,5.8,-,N/A,,Clear,140,2013-09-16 10:15:00
3:35 AM,60.8,55.4,82,29.82,10.0,SSE,8.1,-,N/A,,Clear,150,2013-09-16 10:35:00
3:55 AM,60.8,55.4,82,29.82,10.0,SSE,6.9,-,N/A,,Clear,150,2013-09-16 10:55:00
4:15 AM,60.8,55.4,82,29.82,10.0,SE,6.9,-,N/A,,Clear,140,2013-09-16 11:15:00
4:35 AM,60.8,55.4,82,29.82,10.0,SSE,6.9,-,N/A,,Clear,150,2013-09-16 11:35:00
4:55 AM,60.8,55.4,82,29.82,10.0,SE,4.6,-,N/A,,Clear,130,2013-09-16 11:55:00
5:15 AM,60.8,55.4,82,29.82,10.0,SE,4.6,-,N/A,,Clear,140,2013-09-16 12:15:00
5:35 AM,60.8,53.6,77,29.83,10.0,SSE,6.9,-,N/A,,Clear,150,2013-09-16 12:35:00
5:55 AM,60.8,53.6,77,29.83,10.0,SSE,6.9,-,N/A,,Clear,150,2013-09-16 12:55:00
6:15 AM,59.0,53.6,82,29.83,10.0,SE,3.5,-,N/A,,Clear,140,2013-09-16 13:15:00
6:35 AM,59.0,53.6,82,29.84,10.0,SSE,3.5,-,N/A,,Clear,160,2013-09-16 13:35:00
6:55 AM,57.2,51.8,82,29.84,10.0,South,3.5,-,N/A,,Clear,170,2013-09-16 13:55:00
7:15 AM,57.2,51.8,82,29.85,10.0,SSE,4.6,-,N/A,,Clear,160,2013-09-16 14:15:00
7:35 AM,59.0,53.6,82,29.85,10.0,SE,5.8,-,N/A,,Clear,140,2013-09-16 14:35:00
7:55 AM,62.6,55.4,77,29.85,10.0,SE,4.6,-,N/A,,Clear,130,2013-09-16 14:55:00
8:15 AM,64.4,55.4,73,29.86,10.0,SE,4.6,-,N/A,,Clear,130,2013-09-16 15:15:00
8:35 AM,64.4,53.6,68,29.86,10.0,ESE,5.8,-,N/A,,Clear,120,2013-09-16 15:35:00
8:55 AM,66.2,55.4,68,29.86,10.0,SE,5.8,-,N/A,,Clear,140,2013-09-16 15:55:00
9:15 AM,68.0,55.4,64,29.86,10.0,East,4.6,-,N/A,,Clear,100,2013-09-16 16:15:00
9:35 AM,69.8,55.4,60,29.87,10.0,SSE,3.5,-,N/A,,Clear,150,2013-09-16 16:35:00
9:55 AM,69.8,53.6,56,29.86,10.0,SE,3.5,-,N/A,,Clear,140,2013-09-16 16:55:00
10:15 AM,71.6,53.6,53,29.87,10.0,SSE,3.5,-,N/A,,Clear,150,2013-09-16 17:15:00
10:35 AM,73.4,51.8,47,29.86,10.0,East,3.5,-,N/A,,Clear,100,2013-09-16 17:35:00
10:55 AM,73.4,53.6,50,29.86,10.0,SE,3.5,-,N/A,,Clear,140,2013-09-16 17:55:00
11:15 AM,75.2,53.6,47,29.86,10.0,SSW,3.5,-,N/A,,Clear,210,2013-09-16 18:15:00
11:35 AM,77.0,53.6,44,29.86,10.0,SW,3.5,-,N/A,,Clear,230,2013-09-16 18:35:00
11:55 AM,77.0,53.6,44,29.85,10.0,West,5.8,-,N/A,,Clear,260,2013-09-16 18:55:00
12:15 PM,78.8,53.6,42,29.85,10.0,SSW,3.5,-,N/A,,Clear,200,2013-09-16 19:15:00
12:35 PM,78.8,53.6,42,29.85,10.0,West,4.6,-,N/A,,Clear,270,2013-09-16 19:35:00
12:55 PM,80.6,53.6,39,29.84,10.0,WSW,5.8,-,N/A,,Clear,240,2013-09-16 19:55:00
1:15 PM,82.4,51.8,35,29.83,10.0,SSW,4.6,-,N/A,,Clear,210,2013-09-16 20:15:00
1:35 PM,84.2,50.0,30,29.83,10.0,South,5.8,-,N/A,,Clear,190,2013-09-16 20:35:00
1:55 PM,84.2,53.6,35,29.82,10.0,WSW,8.1,-,N/A,,Clear,250,2013-09-16 20:55:00
2:15 PM,82.4,53.6,37,29.81,10.0,Calm,Calm,-,N/A,,Clear,0,2013-09-16 21:15:00
2:35 PM,84.2,51.8,33,29.80,10.0,WNW,5.8,-,N/A,,Clear,290,2013-09-16 21:35:00
2:55 PM,86.0,50.0,29,29.79,10.0,SW,6.9,-,N/A,,Clear,230,2013-09-16 21:55:00
3:15 PM,86.0,50.0,29,29.78,10.0,SW,3.5,-,N/A,,Clear,220,2013-09-16 22:15:00
3:35 PM,86.0,50.0,29,29.77,10.0,WSW,5.8,-,N/A,,Clear,250,2013-09-16 22:35:00
3:55 PM,86.0,50.0,29,29.76,10.0,SSW,6.9,-,N/A,,Clear,200,2013-09-16 22:55:00
4:15 PM,87.8,48.2,25,29.75,10.0,South,5.8,-,N/A,,Clear,180,2013-09-16 23:15:00
4:35 PM,86.0,48.2,27,29.75,10.0,SSW,3.5,-,N/A,,Clear,200,2013-09-16 23:35:00
4:55 PM,86.0,46.4,25,29.74,10.0,SSW,4.6,-,N/A,,Clear,200,2013-09-16 23:55:00
5:15 PM,86.0,46.4,25,29.74,10.0,SW,4.6,-,N/A,,Clear,220,2013-09-17 00:15:00
5:35 PM,86.0,44.6,23,29.73,10.0,SW,5.8,-,N/A,,Clear,220,2013-09-17 00:35:00
5:55 PM,86.0,46.4,25,29.73,10.0,SSW,4.6,-,N/A,,Clear,200,2013-09-17 00:55:00
6:15 PM,86.0,44.6,23,29.72,10.0,SW,5.8,-,N/A,,Clear,220,2013-09-17 01:15:00
6:35 PM,84.2,44.6,25,29.72,10.0,SSW,4.6,-,N/A,,Clear,200,2013-09-17 01:35:00
6:55 PM,80.6,46.4,30,29.71,10.0,South,4.6,-,N/A,,Clear,190,2013-09-17 01:55:00
7:15 PM,78.8,46.4,32,29.71,10.0,SSW,3.5,-,N/A,,Clear,200,2013-09-17 02:15:00
7:35 PM,78.8,46.4,32,29.71,10.0,Calm,Calm,-,N/A,,Clear,0,2013-09-17 02:35:00
7:55 PM,77.0,46.4,34,29.71,10.0,South,4.6,-,N/A,,Clear,180,2013-09-17 02:55:00
8:15 PM,77.0,44.6,32,29.71,10.0,SE,5.8,-,N/A,,Clear,140,2013-09-17 03:15:00
8:35 PM,71.6,48.2,43,29.72,10.0,SSW,5.8,-,N/A,,Clear,200,2013-09-17 03:35:00
8:55 PM,69.8,50.0,49,29.72,10.0,South,6.9,-,N/A,,Clear,190,2013-09-17 03:55:00
9:15 PM,69.8,51.8,53,29.73,10.0,South,5.8,-,N/A,,Clear,180,2013-09-17 04:15:00
9:35 PM,68.0,51.8,56,29.73,10.0,SSE,5.8,-,N/A,,Clear,160,2013-09-17 04:35:00
9:55 PM,69.8,51.8,53,29.74,10.0,SSE,8.1,-,N/A,,Clear,160,2013-09-17 04:55:00
10:15 PM,69.8,51.8,53,29.74,10.0,SSE,9.2,-,N/A,,Clear,150,2013-09-17 05:15:00
10:35 PM,69.8,51.8,53,29.74,10.0,SSE,9.2,-,N/A,,Clear,150,2013-09-17 05:35:00
10:55 PM,69.8,51.8,53,29.74,10.0,SE,8.1,-,N/A,,Clear,140,2013-09-17 05:55:00
11:15 PM,69.8,51.8,53,29.75,10.0,SE,10.4,-,N/A,,Clear,140,2013-09-17 06:15:00
11:35 PM,68.0,51.8,56,29.76,10.0,SSE,9.2,-,N/A,,Clear,150,2013-09-17 06:35:00
11:55 PM,68.0,50.0,52,29.75,10.0,SSE,11.5,-,N/A,,Clear,150,2013-09-17 06:55:00